KC3ROB-13 Weather Reports


time (UTC)temp
F
wind
direction
speed
knots
gust
knots
rain 1hr
in
rain 24hr
in
rain mn
in
humidity
%
barometer
mb
20260505151012 73 0 0.0 0.0 0.00 0.00 0.00 100 1006.1
20260505125012 67 0 0.0 0.0 0.00 0.00 0.00 100 1006.1
20260505124012 66 0 0.0 0.0 0.00 0.00 0.00 100 1006.1
20260505123012 65 0 0.0 0.0 0.00 0.00 0.00 100 1006.1
20260505122012 64 0 0.0 0.0 0.00 0.00 0.00 100 1006.1
20260505121012 64 0 0.0 0.0 0.00 0.00 0.00 100 1006.1
20260505120012 63 0 0.0 0.0 0.00 0.00 0.00 100 1006.1
20260505115013 62 0 0.0 0.0 0.00 0.00 0.00 100 1006.1
20260505114012 62 0 0.0 0.0 0.00 0.00 0.00 100 1006.1
20260505113013 61 0 0.0 0.0 0.00 0.00 0.00 100 1005.8
20260505112012 60 0 0.0 0.0 0.00 0.00 0.00 100 1005.8
20260505111013 60 0 0.0 0.0 0.00 0.00 0.00 100 1005.8
20260505102012 57 0 0.0 0.0 0.00 0.00 0.00 100 1005.4
20260505101012 57 0 0.0 0.0 0.00 0.00 0.00 100 1005.4
20260505100012 57 0 0.0 0.0 0.00 0.00 0.00 100 1005.1
20260505095012 58 0 0.0 0.0 0.00 0.00 0.00 100 1005.1
20260505094012 58 0 0.0 0.0 0.00 0.00 0.00 100 1005.1
20260505093012 58 0 0.0 0.0 0.00 0.00 0.00 100 1005.1
20260505092013 58 0 0.0 0.0 0.00 0.00 0.00 100 1005.1
20260505091012 58 0 0.0 0.0 0.00 0.00 0.00 100 1005.1
20260505090012 58 0 0.0 0.0 0.00 0.00 0.00 100 1005.1
20260505085012 58 0 0.0 0.0 0.00 0.00 0.00 100 1005.1
20260505084014 58 0 0.0 0.0 0.00 0.00 0.00 100 1005.1
20260505083012 58 0 0.0 0.0 0.00 0.00 0.00 100 1005.1
20260505082012 58 0 0.0 0.0 0.00 0.00 0.00 100 1005.1
20260505081012 58 0 0.0 0.0 0.00 0.00 0.00 100 1005.1
20260505080012 59 0 0.0 0.0 0.00 0.00 0.00 100 1005.1
20260505075012 59 0 0.0 0.0 0.00 0.00 0.00 100 1005.1
20260505074012 59 0 0.0 0.0 0.00 0.00 0.00 100 1005.1
20260505073013 59 0 0.0 0.0 0.00 0.00 0.00 100 1005.1
20260505072012 59 0 0.0 0.0 0.00 0.00 0.00 100 1005.1
20260505071012 59 0 0.0 0.0 0.00 0.00 0.00 100 1005.1
20260505070012 59 0 0.0 0.0 0.00 0.00 0.00 100 1005.1
20260505065012 59 0 0.0 0.0 0.00 0.00 0.00 100 1005.1
20260505064012 59 0 0.0 0.0 0.00 0.00 0.00 100 1005.1
20260505063012 59 0 0.0 0.0 0.00 0.00 0.00 100 1005.1
20260505062012 59 0 0.0 0.0 0.00 0.00 0.00 100 1005.1
20260505061012 60 0 0.0 0.0 0.00 0.00 0.00 100 1005.1
20260505060012 60 0 0.0 0.0 0.00 0.00 0.00 100 1005.1
20260505055012 60 0 0.0 0.0 0.00 0.00 0.00 100 1005.1
20260505054012 60 0 0.0 0.0 0.00 0.00 0.00 100 1005.1
20260505053012 60 0 0.0 0.0 0.00 0.00 0.00 100 1005.1
20260505052012 60 0 0.0 0.0 0.00 0.00 0.00 100 1005.1
20260505051012 60 0 0.0 0.0 0.00 0.00 0.00 100 1005.1
20260505041012 61 0 0.0 0.0 0.00 0.00 0.00 100 1005.1
20260505040013 61 0 0.0 0.0 0.00 0.00 0.00 100 1004.7
20260505035012 62 0 0.0 0.0 0.00 0.00 0.00 100 1004.4
20260505034012 62 0 0.0 0.0 0.00 0.00 0.00 100 1004.7
20260505033012 62 0 0.0 0.0 0.00 0.00 0.00 100 1004.7
20260505032012 62 0 0.0 0.0 0.00 0.00 0.00 100 1004.7
20260505031012 63 0 0.0 0.0 0.00 0.00 0.00 100 1004.7
20260505030013 63 0 0.0 0.0 0.00 0.00 0.00 100 1004.4
20260505025002 63 0 0.0 0.0 0.00 0.00 0.00 100 1004.7
20260505024002 63 0 0.0 0.0 0.00 0.00 0.00 100 1005.1
20260505023002 63 0 0.0 0.0 0.00 0.00 0.00 100 1005.1
20260505022002 64 0 0.0 0.0 0.00 0.00 0.00 100 1004.7
20260505021002 64 0 0.0 0.0 0.00 0.00 0.00 100 1004.7
20260505020003 64 0 0.0 0.0 0.00 0.00 0.00 100 1004.7
20260505015002 64 0 0.0 0.0 0.00 0.00 0.00 100 1004.7
20260505014002 64 0 0.0 0.0 0.00 0.00 0.00 100 1004.7
20260505013002 65 0 0.0 0.0 0.00 0.00 0.00 100 1004.7
20260505012003 65 0 0.0 0.0 0.00 0.00 0.00 100 1004.4
20260505011002 66 0 0.0 0.0 0.00 0.00 0.00 100 1004.4
20260505010003 66 0 0.0 0.0 0.00 0.00 0.00 100 1004.4
20260505005002 67 0 0.0 0.0 0.00 0.00 0.00 100 1004.1
20260505004003 67 0 0.0 0.0 0.00 0.00 0.00 100 1004.1
20260505003002 67 0 0.0 0.0 0.00 0.00 0.00 100 1004.1
20260505002003 68 0 0.0 0.0 0.00 0.00 0.00 100 1004.1
20260505001002 68 0 0.0 0.0 0.00 0.00 0.00 100 1004.1
20260505000002 69 0 0.0 0.0 0.00 0.00 0.00 100 1003.7
20260504235003 70 0 0.0 0.0 0.00 0.00 0.00 100 1003.7
20260504234002 71 0 0.0 0.0 0.00 0.00 0.00 100 1003.7
20260504233003 73 0 0.0 0.0 0.00 0.00 0.00 100 1003.7
20260504232002 73 0 0.0 0.0 0.00 0.00 0.00 100 1003.7
20260504231002 73 0 0.0 0.0 0.00 0.00 0.00 100 1003.7
20260504230002 73 0 0.0 0.0 0.00 0.00 0.00 100 1003.7
20260504225002 73 0 0.0 0.0 0.00 0.00 0.00 100 1003.7
20260504224003 74 0 0.0 0.0 0.00 0.00 0.00 100 1003.7
20260504223002 74 0 0.0 0.0 0.00 0.00 0.00 100 1003.7
20260504222003 74 0 0.0 0.0 0.00 0.00 0.00 100 1003.7
20260504221004 74 0 0.0 0.0 0.00 0.00 0.00 100 1003.7
20260504220002 75 0 0.0 0.0 0.00 0.00 0.00 100 1004.1
20260504215002 75 0 0.0 0.0 0.00 0.00 0.00 100 1004.1
20260504214002 75 0 0.0 0.0 0.00 0.00 0.00 100 1004.1
20260504213003 75 0 0.0 0.0 0.00 0.00 0.00 100 1004.1
20260504212003 75 0 0.0 0.0 0.00 0.00 0.00 100 1003.7
20260504211002 75 0 0.0 0.0 0.00 0.00 0.00 100 1003.7
20260504210003 75 0 0.0 0.0 0.00 0.00 0.00 100 1004.1
20260504205002 75 0 0.0 0.0 0.00 0.00 0.00 100 1004.1
20260504204002 75 0 0.0 0.0 0.00 0.00 0.00 100 1004.1
20260504203003 76 0 0.0 0.0 0.00 0.00 0.00 100 1004.1
20260504202003 76 0 0.0 0.0 0.00 0.00 0.00 100 1004.4
20260504201002 76 0 0.0 0.0 0.00 0.00 0.00 100 1004.4
20260504200002 75 0 0.0 0.0 0.00 0.00 0.00 100 1004.4
20260504195002 75 0 0.0 0.0 0.00 0.00 0.00 100 1004.4
20260504194002 74 0 0.0 0.0 0.00 0.00 0.00 100 1004.7
20260504193003 73 0 0.0 0.0 0.00 0.00 0.00 100 1005.1
20260504192002 73 0 0.0 0.0 0.00 0.00 0.00 100 1005.1
20260504191002 73 0 0.0 0.0 0.00 0.00 0.00 100 1005.1
20260504190002 72 0 0.0 0.0 0.00 0.00 0.00 100 1005.1
20260504185002 72 0 0.0 0.0 0.00 0.00 0.00 100 1005.1
20260504184003 72 0 0.0 0.0 0.00 0.00 0.00 100 1005.4
20260504183002 71 0 0.0 0.0 0.00 0.00 0.00 100 1005.4
20260504182002 71 0 0.0 0.0 0.00 0.00 0.00 100 1006.1
20260504181002 71 0 0.0 0.0 0.00 0.00 0.00 100 1006.1
20260504180003 70 0 0.0 0.0 0.00 0.00 0.00 100 1006.1
20260504175002 70 0 0.0 0.0 0.00 0.00 0.00 100 1006.1
20260504174003 70 0 0.0 0.0 0.00 0.00 0.00 100 1006.1
20260504173003 70 0 0.0 0.0 0.00 0.00 0.00 100 1006.4
20260504172002 70 0 0.0 0.0 0.00 0.00 0.00 100 1006.8
20260504171003 70 0 0.0 0.0 0.00 0.00 0.00 100 1006.8